RA43 UUBW-UUBW

Flight info

Callsign RA43
Flight time N/A
Altitude 8000
Route DCT
Aircraft C172/L-SFG/C

Departure

Time 2026-05-06 12:14
Airport Zhukovsky International Airport (UUBW)

Arrival

Time N/A
Airport Zhukovsky International Airport (UUBW)
Time Latitude Longitude Altitude Speed Heading
2026-05-06 12:09 55.55984 38.12513 406 ft 0 kts 304°
2026-05-06 12:10 55.55983 38.12502 406 ft 4 kts 221°
2026-05-06 12:10 55.55969 38.12555 406 ft 0 kts 121°
2026-05-06 12:10 55.55968 38.12558 406 ft 2 kts 120°
2026-05-06 12:10 55.55991 38.12619 406 ft 12 kts 43°
2026-05-06 12:11 55.56061 38.12730 406 ft 12 kts 49°
2026-05-06 12:11 55.56065 38.12853 406 ft 10 kts 132°
2026-05-06 12:11 55.56030 38.12935 405 ft 8 kts 123°
2026-05-06 12:11 55.55995 38.13005 405 ft 10 kts 131°
2026-05-06 12:12 55.55927 38.13143 405 ft 20 kts 132°
2026-05-06 12:12 55.55841 38.13309 406 ft 16 kts 131°
2026-05-06 12:12 55.55772 38.13450 405 ft 14 kts 128°
2026-05-06 12:12 55.55654 38.13680 405 ft 33 kts 131°
2026-05-06 12:13 55.55501 38.13985 405 ft 29 kts 131°
2026-05-06 12:13 55.55519 38.14191 401 ft 18 kts 41°
2026-05-06 12:13 55.55631 38.14290 393 ft 18 kts 319°
2026-05-06 12:13 55.55779 38.13992 395 ft 56 kts 313°
2026-05-06 12:14 55.56103 38.13351 479 ft 78 kts 309°
2026-05-06 12:14 55.56467 38.12602 673 ft 83 kts 310°
2026-05-06 12:14 55.56851 38.11752 835 ft 91 kts 303°
2026-05-06 12:14 55.57257 38.10940 1110 ft 86 kts 314°
2026-05-06 12:15 55.57677 38.10235 1339 ft 81 kts 314°
2026-05-06 12:15 55.58047 38.09508 1610 ft 75 kts 308°
2026-05-06 12:15 55.58346 38.08945 1830 ft 60 kts 308°
2026-05-06 12:15 55.58725 38.08297 1888 ft 79 kts 311°
2026-05-06 12:16 55.59045 38.07678 2257 ft 59 kts 310°
2026-05-06 12:16 55.59320 38.07159 2499 ft 56 kts 311°
2026-05-06 12:16 55.59597 38.06673 2733 ft 57 kts 313°
2026-05-06 12:16 55.59883 38.06154 2888 ft 68 kts 313°
2026-05-06 12:17 55.60289 38.05431 2874 ft 94 kts 313°
2026-05-06 12:17 55.60804 38.04611 2867 ft 106 kts 314°
2026-05-06 12:17 55.61368 38.03717 2866 ft 111 kts 313°
2026-05-06 12:17 55.61961 38.02841 2864 ft 111 kts 314°
2026-05-06 12:18 55.62467 38.01861 2858 ft 106 kts 296°
2026-05-06 12:18 55.62805 38.00703 2857 ft 107 kts 294°
2026-05-06 12:18 55.63137 37.99519 2859 ft 108 kts 294°
2026-05-06 12:18 55.63471 37.98334 2856 ft 108 kts 295°
2026-05-06 12:19 55.63786 37.97108 2855 ft 111 kts 294°
2026-05-06 12:19 55.64101 37.95875 2857 ft 109 kts 294°
2026-05-06 12:19 55.64419 37.94660 2856 ft 109 kts 294°
2026-05-06 12:19 55.64737 37.93451 2856 ft 108 kts 294°
2026-05-06 12:20 55.65060 37.92253 2853 ft 108 kts 294°
2026-05-06 12:20 55.65381 37.91087 2861 ft 103 kts 294°
2026-05-06 12:20 55.65698 37.89941 2848 ft 107 kts 294°
2026-05-06 12:20 55.66023 37.88736 2848 ft 110 kts 294°
2026-05-06 12:21 55.66345 37.87501 2851 ft 111 kts 294°
2026-05-06 12:21 55.66672 37.86253 2851 ft 112 kts 294°
2026-05-06 12:21 55.67003 37.85007 2848 ft 110 kts 294°
2026-05-06 12:21 55.67323 37.83783 2847 ft 110 kts 294°
2026-05-06 12:22 55.67647 37.82558 2849 ft 109 kts 294°
2026-05-06 12:22 55.67777 37.82064 2849 ft 109 kts 293°
2026-05-06 12:22 55.68089 37.80861 2854 ft 106 kts 294°
2026-05-06 12:22 55.68407 37.79676 2848 ft 107 kts 294°
2026-05-06 12:23 55.68729 37.78474 2848 ft 108 kts 297°
2026-05-06 12:23 55.69317 37.77655 2856 ft 110 kts 322°
2026-05-06 12:23 55.69961 37.76927 2855 ft 110 kts 320°
2026-05-06 12:23 55.70605 37.76183 2860 ft 110 kts 320°
2026-05-06 12:24 55.71247 37.75496 2855 ft 109 kts 323°
2026-05-06 12:24 55.71892 37.74781 2851 ft 109 kts 322°
2026-05-06 12:24 55.72540 37.74081 2852 ft 109 kts 321°
2026-05-06 12:24 55.73188 37.73387 2846 ft 110 kts 323°
2026-05-06 12:25 55.73828 37.72639 2844 ft 111 kts 322°
2026-05-06 12:25 55.74476 37.71909 2854 ft 109 kts 322°
2026-05-06 12:25 55.75127 37.71209 2864 ft 110 kts 322°
2026-05-06 12:25 55.75774 37.70483 2858 ft 111 kts 323°
2026-05-06 12:26 55.76360 37.69808 2857 ft 112 kts 322°
2026-05-06 12:26 55.77018 37.69060 2855 ft 112 kts 322°
2026-05-06 12:26 55.77676 37.68342 2860 ft 110 kts 322°
2026-05-06 12:26 55.78334 37.67667 2855 ft 109 kts 324°
2026-05-06 12:27 55.78983 37.66980 2853 ft 109 kts 322°
2026-05-06 12:27 55.79634 37.66282 2856 ft 109 kts 321°
2026-05-06 12:27 55.80284 37.65621 2857 ft 107 kts 322°
2026-05-06 12:27 55.80933 37.64978 2855 ft 107 kts 322°
2026-05-06 12:28 55.81580 37.64324 2852 ft 107 kts 322°
2026-05-06 12:28 55.82225 37.63657 2851 ft 108 kts 324°
2026-05-06 12:28 55.82869 37.62967 2853 ft 108 kts 321°
2026-05-06 12:28 55.83518 37.62304 2855 ft 107 kts 322°
2026-05-06 12:29 55.84166 37.61625 2850 ft 109 kts 322°
2026-05-06 12:29 55.84811 37.60917 2852 ft 109 kts 322°